Regional Weather Roundup
Issued by NWS Midland/Odessa, TX

Home | Current Version | Previous Version | Text Only | Print | Product List | Glossary On
Versions: 1 2 3 4 5 6 7 8 9 10 11 12 13 14 15 16 17 18 19 20 21 22 23 24 25 26 27 28 29 30 31 32 33 34 35 36 37 38 39 40 41 42 43 44 45 46 47 48 49 50
000
ASUS44 KMAF 301910
RWRMAF
MIDLAND AREA WEATHER ROUNDUP
NATIONAL WEATHER SERVICE MIDLAND TX
200 PM CDT SUN APR 30 2017

...IN SOUTHWEST TEXAS AND SOUTHEAST NEW MEXICO...

CITY           SKY/WX    TMP DP  RH WIND       PRES   REMARKS
ALPINE         SUNNY     66  18  15 W28G33    30.10F
ANDREWS        CLOUDY    61  33  34 W21G29    29.98F
ARTESIA        SUNNY     66  25  20 NW16G26   29.97S
BIG SPRING     PTSUNNY   61  33  35 W24       29.99F
CARLSBAD       SUNNY     67  30  25 W21G30    29.96F
DRYDEN           N/A     75  25  15 SW9G20    29.94F
FORT STOCKTON  SUNNY     71  25  17 W17G31    29.99F
GUAD PASS      SUNNY     57  28  33 W44G54    30.02S
HOBBS          MOSUNNY   61  32  33 W18G28    29.98F
MARFA          SUNNY     64  18  17 W33G41    30.08F
MIDLAND AIRPK  MOSUNNY   65  32  29 W16       29.98F
MIDLAND INTL   SUNNY     65  30  27 W18G31    29.97F
ODESSA         SUNNY     64  29  26 W21G29    29.98F
PECOS          SUNNY     70  26  19 W30       29.98F
PRESIDIO       FAIR      71  24  16 SW7       30.05F
SEMINOLE       CLOUDY    58  33  38 NW13G25   29.98F
SNYDER         MOSUNNY  N/A N/A N/A W25G37    29.95F
WINK           SUNNY     68  31  25 NW18G25   29.95F
$$
...OTHER STATIONS IN TEXAS...

CITY           SKY/WX    TMP DP  RH WIND       PRES   REMARKS
ABILENE        MOSUNNY   64  32  30 NW33G43   29.89F
AMARILLO       CLOUDY    40  31  70 NW26G40   29.84S WCI  29
AUSTIN         SUNNY     72  35  25 W15G24    29.92F
BROWNSVILLE    SUNNY     86  41  20 N12G24    29.94F
CORPUS CHRISTI SUNNY     79  40  24 NW20G26   29.95F
DALLAS FTW     PTSUNNY   68  33  27 SW30G37   29.77F
DEL RIO        SUNNY     72  33  24 NW13      29.98F
EL PASO        SUNNY     66  18  15 NW13G23   30.06F
HOUSTON INT    MOSUNNY   69  42  37 NW8G17    29.93F
LUBBOCK        MOSUNNY   59  26  28 NW33G49   29.91F
SAN ANGELO     SUNNY     68  30  24 W17G31    29.95F
SAN ANTONIO    SUNNY     75  37  25 W16G32    29.94F
WACO           SUNNY     70  38  31 W24G31    29.88F
WICHITA FALLS  NOT AVBL
$$
...OTHER LOCATIONS IN NEW MEXICO...

CITY           SKY/WX    TMP DP  RH WIND       PRES   REMARKS
ALAMOGORDO     SUNNY     59  25  27 NW12G22   30.08F
ALBUQUERQUE    MOSUNNY   57  20  23 NW17G31   30.04F
CANNON AFB     SUNNY     53  25  34 NW14G22   29.96F
CLOVIS         SUNNY     54  25  32 NW20G31   29.96S
HOLLOMAN AFB   SUNNY     60  26  27 NW8       30.09F
ROSWELL        SUNNY     66  26  22 NW22G33   30.00F
RUIDOSO        SUNNY     46  25  42 NW16G29   30.07R WCI  40
SANTA FE       SUNNY     46  35  65 SW7       30.01F
TRUTH OR CONSE SUNNY     67  11  11 NW15G25   30.04F
TUCUMCARI      SUNNY     53  33  46 N14       29.93F
$$



USA.gov is the U.S. government's official web portal to all federal, state and local government web resources and services.